Wind_Speed
24 23 23 22 21 21 21 18 16 15 16 16 15 14 13 12 11 11 11 11 12 12 12 13 13 13 13 13 14 14 15 15 15 15 16 17 18 19 19 20 21 21 22 23
25 24 23 23 22 21 21 20 18 17 18 18 16 15 14 13 13 13 12 13 13 13 14 14 14 15 15 15 16 16 16 17 17 17 18 19 19 20 21 22 23 23 24 24
24 24 24 24 22 21 21 20 20 19 18 19 18 17 16 15 14 14 14 14 14 15 14 15 15 16 17 17 17 18 18 19 19 20 20 21 22 23 23 24 25 25 26 26
24 24 24 21 20 20 21 21 21 20 20 21 20 19 18 17 16 16 15 15 16 16 16 16 17 17 18 19 19 20 20 21 21 22 23 23 24 25 25 26 26 27 28 28
25 23 22 22 20 20 21 21 21 21 21 22 21 19 19 18 18 18 17 17 17 18 18 18 19 20 20 21 22 22 23 23 24 25 25 26 26 27 27 28 29 29 30 30
26 24 22 23 21 21 21 21 21 22 22 22 21 21 21 20 20 20 19 19 19 19 20 21 21 22 22 23 23 24 25 26 27 27 27 28 28 29 29 30 31 31 31 32
24 25 25 24 22 21 22 22 21 21 22 23 22 23 23 22 22 21 22 21 22 22 22 22 23 24 25 26 26 27 28 28 29 29 29 30 31 31 31 32 32 33 33 34
23 24 25 24 23 22 22 21 21 22 23 23 23 23 23 23 24 24 24 23 23 23 24 25 25 26 27 27 28 29 30 30 30 30 31 32 32 33 33 34 34 35 35 36
23 24 24 23 23 22 22 22 22 22 23 23 24 24 24 24 24 25 26 26 26 26 27 28 28 29 29 30 30 31 31 31 31 32 32 33 34 35 36 36 37 37 37 38
22 23 24 24 24 23 22 22 23 22 23 23 24 25 25 25 25 26 28 28 29 29 30 30 30 30 31 32 31 32 32 33 33 34 34 35 36 36 37 37 38 39 40 41
23 23 23 25 25 24 24 24 23 23 24 25 25 25 26 27 27 28 29 29 30 30 31 31 32 32 33 33 33 34 35 35 35 35 35 36 37 38 38 39 40 41 42 43
23 23 24 24 25 25 25 25 25 25 25 26 27 27 27 28 28 29 30 31 32 32 32 33 34 35 35 34 34 35 36 36 37 37 38 39 39 40 41 42 42 43 44 45
21 22 22 23 23 24 25 25 26 25 25 26 27 27 28 28 30 30 30 32 33 33 34 35 35 36 37 36 36 37 37 38 39 40 40 40 41 42 42 43 44 46 47 48
20 21 22 22 23 23 24 25 26 26 25 26 26 27 28 29 30 31 31 31 32 33 34 34 34 34 34 35 37 38 38 39 40 40 41 43 43 44 45 46 47 48 49 50
19 20 21 22 22 23 24 24 24 25 25 26 27 28 29 29 30 31 31 32 32 33 34 34 34 34 35 37 38 38 39 40 41 42 42 43 44 45 46 47 48 50 51 52
18 19 21 22 23 23 24 24 24 25 25 26 27 28 29 30 30 31 31 32 32 33 34 34 35 36 37 37 38 38 39 41 42 43 44 45 46 47 48 49 50 52 53 54
18 19 20 21 22 23 23 23 23 24 25 26 26 27 28 29 29 30 31 31 32 33 34 35 36 38 38 38 39 40 41 42 43 44 45 46 47 49 50 51 53 54 55 56
18 19 21 21 21 22 23 23 23 24 24 25 25 26 26 26 27 28 29 29 31 33 35 36 36 37 39 40 40 41 42 43 44 45 47 48 49 51 52 53 54 55 56 57
18 18 19 20 21 22 23 24 24 24 24 25 25 26 26 27 27 28 30 31 32 33 34 34 36 37 39 40 41 42 43 45 46 47 49 50 51 52 53 54 55 56 57 58
19 19 20 21 22 22 23 24 24 25 26 26 27 27 28 28 29 30 31 32 33 34 35 36 37 38 40 41 42 44 45 46 48 49 50 51 52 53 54 56 56 56 56 56
20 21 22 23 24 24 24 24 25 26 26 27 28 29 30 30 31 32 32 34 35 36 37 38 39 40 41 42 44 45 46 47 49 50 51 52 53 54 55 55 55 55 54 52
21 22 23 24 24 25 25 26 27 28 29 29 30 31 32 33 34 35 36 36 37 38 39 39 41 42 43 44 45 46 47 48 49 50 51 52 53 53 53 53 53 52 50 48
22 24 25 25 25 26 27 28 29 30 31 31 32 33 34 35 36 36 37 37 38 39 40 41 42 42 43 45 46 47 48 49 50 51 51 52 52 52 51 51 50 48 46 44
26 27 28 28 28 29 29 30 30 31 31 32 33 34 35 35 36 37 38 39 39 40 41 42 43 44 45 46 47 48 49 49 49 49 49 49 49 48 48 47 45 43 41 39
27 28 29 30 30 30 31 32 32 33 33 34 35 35 36 36 37 38 38 39 40 41 42 43 44 45 45 46 47 47 47 47 47 46 46 45 45 44 43 41 39 37 35 33
28 28 29 30 31 32 32 32 33 33 34 34 35 36 36 37 38 39 40 41 42 42 43 43 44 44 45 45 45 45 45 44 43 43 42 41 40 38 37 35 33 31 29 27
29 29 30 31 32 32 33 34 34 34 34 34 35 36 37 37 38 39 40 40 41 41 41 42 42 42 42 42 41 41 41 40 40 39 38 36 34 33 32 30 28 26 25 23
Wind_Direction
239 242 244 247 246 243 245 246 247 249 250 255 257 256 254 253 252 247 245 243 238 234 234 234 234 234 237 240 242 244 246 250 254 259 263 267 271 275 279 281 284 286 289 291
241 243 245 245 246 244 243 244 245 247 248 250 250 251 252 250 248 245 246 247 245 242 241 241 241 242 243 246 248 250 253 256 259 264 267 271 275 278 281 283 286 288 290 293
239 241 244 245 244 243 241 243 245 246 244 244 244 247 246 245 244 244 247 248 245 244 244 246 247 247 248 250 252 255 258 261 265 268 272 275 278 280 282 285 288 290 292 295
239 241 241 240 239 240 240 241 244 243 240 240 242 243 243 243 244 244 246 247 246 245 248 249 250 251 252 254 256 259 262 265 268 272 274 277 280 282 284 286 289 290 292 294
234 238 240 241 237 236 239 242 240 238 237 239 240 240 241 242 243 246 248 250 251 250 250 251 253 254 255 256 257 261 264 267 269 273 276 279 281 284 286 288 289 290 292 294
236 237 243 243 239 238 242 243 237 235 235 236 237 239 241 242 245 246 250 252 253 251 252 253 256 258 259 259 261 263 266 268 270 274 277 280 282 284 286 288 289 290 292 293
236 238 240 239 237 238 240 240 235 235 234 235 237 239 243 246 247 250 252 253 253 253 254 256 258 260 260 261 264 266 269 270 272 274 277 279 281 284 287 288 289 291 292 293
230 233 235 235 237 238 240 238 237 236 235 237 238 241 245 247 248 250 252 253 255 256 257 259 262 262 262 263 265 267 271 273 274 276 278 280 281 283 286 288 290 290 291 293
228 232 235 235 236 236 237 237 238 238 236 238 240 244 246 248 248 250 252 254 257 259 260 262 264 263 263 265 268 270 272 273 274 276 279 282 283 284 285 287 289 290 291 293
231 234 235 234 234 235 237 238 239 240 238 240 242 245 248 249 249 250 253 256 259 261 262 263 264 265 265 266 268 271 272 274 276 277 279 282 283 284 286 288 289 290 291 293
233 233 234 234 235 236 239 239 240 243 243 243 244 246 248 250 250 252 255 257 261 263 262 262 265 266 267 267 268 270 272 274 275 277 279 282 283 285 287 288 290 291 291 292
233 232 233 236 239 240 243 242 243 246 248 248 247 248 251 252 255 256 257 259 261 263 264 265 268 269 268 268 269 271 274 274 276 279 281 282 284 287 288 289 290 291 292 292
235 235 238 240 242 244 246 244 244 247 250 250 252 252 253 255 257 259 260 260 262 265 266 267 269 271 270 269 270 273 273 275 277 280 282 284 286 287 288 290 290 292 293 294
239 238 238 240 244 246 248 248 248 251 255 256 257 257 257 258 259 260 261 263 264 265 265 266 268 270 270 271 273 274 275 275 278 281 283 285 286 288 289 291 292 293 293 294
243 240 241 243 244 246 248 250 253 255 257 259 259 259 260 261 262 263 264 265 267 267 266 266 268 269 270 272 273 275 278 279 280 281 284 286 288 289 290 291 292 293 294 295
248 246 245 246 246 248 251 254 256 256 257 259 260 261 261 261 261 263 265 265 267 269 268 267 268 270 272 273 275 278 281 282 283 285 286 287 289 290 291 292 293 294 294 295
253 253 252 250 249 251 253 254 256 258 258 261 263 262 264 264 264 264 265 266 269 270 270 271 272 272 274 276 278 281 283 284 285 287 288 289 290 291 292 293 293 294 295 295
253 253 251 250 251 256 256 255 257 259 261 262 264 266 266 266 266 267 268 271 272 273 273 274 276 277 278 281 282 283 284 286 286 287 288 290 291 292 292 293 294 295 296 296
252 253 253 253 256 261 262 261 260 260 262 265 267 267 269 270 272 273 273 275 277 277 277 279 282 283 285 285 285 286 287 288 289 290 291 291 292 293 293 294 295 296 297 297
255 258 261 261 261 263 263 263 265 267 268 270 272 272 273 275 275 276 276 278 279 280 282 284 286 286 286 287 287 287 289 290 291 291 292 293 293 294 295 295 296 297 297 298
259 262 265 265 263 262 264 266 269 270 271 272 274 275 276 278 279 279 281 283 283 284 285 285 286 287 288 289 290 290 291 292 292 293 293 294 295 295 296 296 297 298 298 298
261 262 263 264 264 264 266 269 271 273 275 278 280 280 281 282 282 282 283 284 285 285 286 287 288 289 290 291 292 292 292 293 293 294 295 295 296 296 297 297 298 298 298 298
261 261 261 263 266 268 270 272 274 276 277 278 279 280 281 281 281 282 284 285 286 287 288 289 290 291 291 292 292 293 293 294 295 295 296 296 297 297 298 298 299 299 298 297
263 264 264 266 268 271 273 274 276 278 279 280 281 282 283 283 284 285 287 287 288 288 289 290 291 292 292 293 293 294 294 295 295 296 297 297 297 298 298 299 299 298 297 297
266 267 267 270 272 275 278 279 280 282 283 284 284 284 285 286 287 288 288 289 289 290 291 292 293 293 293 294 294 294 295 296 296 297 297 297 298 298 299 299 299 299 298 297
268 270 272 272 274 276 278 279 281 282 283 283 284 285 286 287 287 288 288 289 290 292 292 293 294 294 295 295 295 295 296 296 297 297 298 298 299 299 299 300 299 299 298 297
271 272 274 275 275 276 277 279 280 281 282 283 284 285 287 287 288 289 290 291 292 293 294 295 295 296 296 296 296 297 297 297 297 298 298 298 299 299 300 300 300 299 298 296
Height
5815 5817 5818 5819 5821 5822 5824 5826 5828 5829 5829 5829 5828 5829 5829 5830 5830 5831 5832 5833 5834 5836 5837 5838 5840 5841 5842 5843 5844 5845 5845 5846 5846 5846 5846 5846 5846 5845 5844 5843 5842 5840 5838 5836
5808 5810 5811 5813 5815 5817 5819 5820 5822 5823 5824 5824 5824 5824 5825 5825 5826 5827 5829 5830 5831 5832 5833 5835 5836 5837 5839 5839 5840 5841 5841 5842 5842 5842 5842 5841 5841 5840 5839 5837 5836 5834 5832 5830
5802 5804 5805 5807 5809 5811 5813 5814 5816 5816 5818 5818 5819 5819 5820 5821 5822 5824 5825 5826 5827 5828 5830 5831 5832 5833 5834 5835 5836 5836 5837 5837 5837 5837 5837 5836 5835 5834 5833 5831 5830 5828 5826 5823
5795 5798 5799 5804 5803 5805 5806 5808 5809 5810 5811 5812 5813 5814 5815 5817 5818 5819 5820 5822 5823 5824 5826 5827 5828 5829 5829 5830 5831 5831 5832 5832 5832 5831 5831 5830 5829 5828 5826 5825 5823 5821 5819 5816
5788 5791 5794 5796 5797 5799 5800 5802 5803 5804 5805 5807 5808 5809 5811 5812 5813 5815 5816 5817 5818 5819 5821 5822 5823 5823 5824 5825 5825 5826 5826 5826 5825 5825 5824 5823 5822 5821 5819 5817 5815 5813 5811 5808
5781 5784 5787 5790 5791 5792 5795 5796 5797 5798 5799 5801 5803 5805 5806 5807 5808 5809 5811 5812 5813 5814 5815 5816 5817 5818 5818 5819 5819 5819 5819 5819 5818 5818 5817 5816 5814 5813 5811 5809 5807 5805 5803 5800
5774 5777 5780 5782 5784 5787 5790 5790 5791 5792 5794 5796 5797 5799 5800 5801 5802 5804 5805 5806 5808 5809 5810 5811 5811 5812 5812 5812 5812 5812 5812 5811 5811 5810 5809 5808 5806 5805 5803 5801 5798 5796 5794 5791
5768 5771 5775 5775 5777 5780 5782 5783 5784 5786 5788 5789 5791 5792 5794 5795 5796 5798 5799 5800 5802 5803 5803 5804 5805 5805 5805 5805 5805 5805 5805 5804 5803 5802 5801 5799 5798 5796 5794 5792 5789 5787 5784 5781
5762 5765 5766 5768 5770 5773 5775 5776 5778 5780 5781 5783 5785 5786 5787 5789 5790 5791 5792 5794 5795 5796 5796 5797 5797 5797 5798 5798 5797 5797 5796 5796 5794 5793 5792 5790 5789 5787 5785 5782 5780 5777 5774 5771
5754 5756 5758 5761 5763 5766 5768 5770 5772 5774 5775 5777 5778 5779 5781 5782 5783 5784 5786 5787 5788 5788 5789 5789 5789 5789 5789 5790 5789 5789 5788 5787 5786 5784 5783 5781 5779 5777 5775 5772 5769 5767 5764 5761
5748 5750 5752 5754 5757 5759 5761 5763 5766 5767 5769 5770 5771 5772 5774 5775 5776 5777 5778 5779 5780 5780 5780 5781 5781 5781 5781 5781 5780 5780 5779 5778 5776 5775 5773 5771 5769 5767 5764 5762 5759 5756 5753 5750
5742 5744 5746 5748 5750 5752 5754 5756 5758 5760 5761 5762 5764 5765 5766 5767 5768 5769 5770 5771 5772 5772 5772 5772 5772 5771 5771 5770 5770 5770 5769 5768 5766 5765 5763 5761 5759 5756 5753 5751 5748 5744 5741 5737
5735 5737 5739 5741 5743 5745 5747 5749 5751 5752 5753 5755 5756 5757 5759 5760 5760 5761 5762 5762 5763 5763 5763 5763 5762 5762 5761 5760 5760 5760 5759 5757 5756 5754 5752 5750 5747 5744 5741 5738 5735 5732 5728 5724
5729 5731 5733 5735 5737 5738 5740 5742 5743 5744 5746 5747 5748 5750 5751 5751 5752 5752 5753 5753 5753 5754 5753 5753 5753 5752 5752 5751 5750 5749 5748 5747 5745 5743 5740 5738 5735 5732 5729 5725 5722 5718 5714 5710
5724 5726 5727 5729 5730 5732 5733 5735 5736 5738 5738 5739 5741 5742 5742 5743 5743 5743 5744 5744 5744 5744 5744 5744 5743 5743 5742 5741 5740 5738 5737 5735 5733 5731 5728 5725 5723 5719 5716 5712 5708 5704 5700 5695
5719 5720 5721 5723 5724 5726 5727 5728 5729 5730 5731 5732 5733 5733 5733 5734 5734 5734 5735 5735 5735 5734 5733 5733 5733 5732 5731 5730 5729 5727 5725 5723 5721 5718 5715 5712 5709 5706 5702 5698 5694 5690 5685 5680
5714 5715 5716 5717 5718 5720 5721 5721 5722 5723 5723 5724 5724 5724 5725 5725 5725 5725 5725 5725 5725 5725 5724 5724 5723 5722 5721 5719 5717 5715 5713 5711 5708 5705 5702 5699 5695 5691 5687 5683 5679 5674 5669 5664
5709 5710 5710 5711 5713 5713 5714 5714 5715 5715 5716 5716 5716 5716 5716 5717 5717 5717 5716 5716 5716 5715 5714 5714 5712 5711 5710 5708 5706 5703 5701 5698 5695 5692 5688 5685 5681 5677 5672 5668 5663 5658 5653 5647
5703 5704 5705 5706 5706 5707 5707 5708 5708 5709 5709 5709 5709 5709 5709 5709 5709 5708 5708 5707 5706 5706 5705 5703 5702 5700 5698 5696 5693 5691 5688 5685 5681 5677 5674 5670 5666 5661 5657 5652 5647 5642 5636 5631
5698 5699 5699 5700 5701 5701 5701 5702 5702 5702 5703 5703 5702 5702 5702 5701 5700 5700 5699 5698 5697 5696 5694 5693 5691 5689 5686 5684 5681 5678 5674 5671 5667 5663 5659 5655 5650 5646 5641 5636 5630 5625 5620 5614
5692 5693 5693 5694 5694 5694 5694 5695 5695 5695 5695 5695 5694 5694 5693 5692 5691 5690 5689 5688 5687 5685 5683 5681 5679 5676 5674 5671 5667 5664 5660 5656 5652 5648 5644 5639 5635 5630 5625 5619 5614 5609 5604 5598
5686 5686 5687 5687 5687 5687 5687 5687 5687 5687 5687 5686 5685 5685 5684 5683 5682 5680 5679 5677 5676 5673 5671 5669 5666 5663 5660 5657 5654 5650 5646 5642 5637 5633 5629 5624 5619 5614 5609 5603 5598 5593 5588 5583
5679 5680 5680 5680 5680 5680 5680 5680 5679 5679 5678 5677 5677 5676 5674 5673 5671 5670 5668 5666 5664 5661 5659 5657 5654 5651 5647 5643 5640 5636 5632 5627 5623 5618 5614 5609 5604 5598 5593 5588 5583 5578 5573 5569
5672 5672 5672 5672 5672 5672 5672 5671 5670 5669 5668 5667 5666 5665 5664 5662 5661 5659 5656 5654 5652 5649 5647 5644 5641 5637 5633 5629 5625 5621 5617 5613 5608 5603 5599 5594 5589 5584 5579 5574 5569 5565 5560 5557
5665 5664 5664 5664 5664 5663 5663 5662 5661 5660 5659 5657 5656 5654 5653 5651 5649 5647 5644 5642 5639 5637 5634 5630 5627 5623 5619 5615 5611 5607 5603 5598 5594 5589 5584 5580 5575 5570 5566 5561 5557 5553 5549 5546
5656 5656 5656 5655 5654 5654 5653 5652 5651 5650 5648 5647 5645 5643 5641 5639 5637 5634 5632 5629 5626 5623 5620 5617 5613 5609 5605 5601 5597 5593 5589 5584 5580 5576 5571 5567 5563 5558 5554 5550 5546 5543 5539 5536
5647 5647 5646 5646 5645 5644 5643 5641 5640 5639 5637 5636 5634 5632 5630 5627 5625 5622 5619 5616 5613 5610 5607 5603 5599 5596 5592 5588 5584 5579 5575 5571 5567 5563 5559 5555 5551 5548 5544 5541 5537 5534 5531 5529